Temp
-14 -14 -14 -14 -14 -14 -14 -14 -14 -14 -14 -14 -14 -14 -14 -14 -14 -14 -14 -14 -14 -14 -14 -15 -15 -15 -16 -16 -16 -17 -17 -17 -17 -17 -17 -17 -17 -17 -17 -17 -17 -17
-14 -14 -14 -14 -14 -14 -14 -14 -14 -14 -14 -14 -14 -14 -14 -14 -14 -14 -14 -14 -14 -14 -15 -15 -15 -16 -16 -17 -17 -17 -17 -17 -17 -17 -17 -17 -17 -17 -17 -17 -17 -17
-14 -14 -14 -14 -14 -14 -14 -14 -14 -14 -14 -14 -14 -14 -14 -14 -14 -14 -14 -15 -15 -15 -15 -15 -16 -16 -17 -17 -17 -17 -17 -17 -17 -17 -17 -17 -17 -17 -17 -17 -18 -18
-14 -14 -14 -14 -14 -14 -14 -14 -14 -14 -14 -14 -14 -14 -14 -14 -15 -15 -15 -15 -15 -15 -16 -16 -17 -17 -17 -17 -17 -18 -18 -18 -17 -17 -17 -17 -17 -17 -18 -18 -18 -19
-14 -14 -14 -14 -14 -14 -14 -14 -14 -14 -14 -14 -14 -14 -15 -15 -15 -15 -15 -15 -15 -16 -16 -17 -17 -17 -17 -17 -18 -18 -18 -18 -18 -18 -17 -17 -18 -18 -18 -18 -19 -20
-14 -14 -14 -14 -14 -14 -14 -14 -15 -15 -15 -15 -15 -15 -15 -15 -15 -15 -15 -16 -16 -16 -17 -17 -17 -17 -17 -18 -18 -18 -18 -18 -18 -18 -18 -18 -18 -18 -19 -19 -20 -20
-15 -15 -15 -14 -14 -15 -15 -15 -15 -15 -15 -15 -15 -15 -15 -15 -15 -16 -16 -16 -16 -17 -17 -17 -18 -18 -18 -18 -18 -18 -18 -18 -18 -18 -18 -18 -18 -19 -19 -20 -20 -21
-15 -15 -15 -15 -15 -15 -15 -15 -15 -15 -15 -15 -15 -15 -15 -15 -16 -16 -16 -17 -17 -17 -18 -18 -18 -18 -18 -18 -18 -18 -18 -18 -18 -18 -18 -19 -19 -19 -20 -20 -21 -21
-14 -14 -15 -15 -15 -15 -15 -15 -15 -15 -15 -15 -15 -15 -16 -16 -16 -17 -17 -17 -18 -18 -18 -18 -18 -18 -18 -18 -18 -18 -18 -18 -18 -18 -19 -19 -20 -20 -21 -21 -22 -22
-14 -14 -14 -15 -15 -15 -15 -15 -15 -15 -15 -15 -15 -16 -16 -17 -17 -17 -17 -18 -18 -18 -18 -18 -18 -18 -18 -18 -18 -18 -18 -18 -19 -19 -19 -20 -20 -21 -21 -22 -22 -23
-14 -14 -15 -15 -15 -15 -15 -15 -15 -15 -15 -16 -16 -17 -17 -17 -17 -18 -18 -18 -18 -18 -18 -18 -19 -19 -19 -19 -19 -18 -18 -19 -19 -20 -20 -21 -21 -22 -22 -23 -23 -23
-15 -15 -15 -15 -15 -15 -15 -15 -15 -15 -16 -16 -17 -17 -18 -18 -18 -18 -18 -18 -18 -18 -19 -19 -19 -19 -19 -19 -19 -19 -19 -19 -20 -20 -21 -21 -22 -22 -23 -23 -23 -24
-15 -15 -15 -15 -15 -15 -15 -15 -15 -16 -16 -17 -17 -18 -18 -18 -18 -18 -18 -18 -19 -19 -19 -19 -19 -19 -19 -19 -19 -19 -19 -20 -21 -21 -22 -22 -22 -23 -23 -24 -24 -24
-15 -15 -15 -15 -15 -15 -15 -16 -16 -16 -17 -18 -18 -18 -18 -18 -18 -18 -18 -19 -19 -19 -19 -19 -19 -19 -19 -19 -19 -20 -20 -21 -22 -22 -22 -23 -23 -23 -24 -24 -24 -25
-15 -15 -15 -15 -16 -16 -16 -16 -17 -17 -18 -18 -18 -18 -18 -18 -18 -19 -19 -19 -19 -19 -19 -19 -19 -19 -19 -20 -20 -20 -21 -22 -22 -23 -23 -23 -24 -24 -24 -25 -25 -26
-15 -16 -16 -16 -16 -16 -16 -17 -18 -18 -18 -18 -18 -19 -19 -19 -19 -19 -19 -20 -20 -20 -19 -19 -19 -20 -20 -20 -21 -21 -22 -22 -23 -23 -24 -24 -24 -25 -25 -25 -26 -26
-16 -16 -16 -16 -16 -17 -18 -18 -18 -19 -19 -19 -19 -19 -19 -19 -19 -20 -20 -20 -20 -20 -19 -20 -20 -20 -20 -21 -21 -22 -23 -23 -23 -24 -24 -25 -25 -25 -26 -26 -26 -27
-17 -17 -17 -17 -18 -18 -19 -19 -19 -19 -19 -19 -19 -19 -19 -19 -20 -20 -20 -20 -20 -20 -20 -20 -20 -21 -21 -22 -22 -23 -23 -23 -24 -24 -25 -25 -26 -26 -26 -27 -27 -28
-18 -18 -18 -19 -19 -19 -19 -19 -19 -19 -19 -19 -19 -20 -20 -20 -20 -20 -20 -20 -20 -20 -20 -20 -21 -21 -22 -22 -23 -23 -24 -24 -25 -25 -25 -26 -26 -26 -27 -27 -28 -28
-18 -19 -19 -19 -19 -19 -19 -19 -19 -19 -19 -19 -20 -20 -20 -20 -20 -20 -20 -20 -20 -20 -21 -21 -21 -22 -23 -23 -23 -24 -24 -25 -25 -26 -26 -26 -27 -27 -27 -28 -28 -29
-19 -19 -19 -19 -19 -19 -19 -19 -19 -19 -19 -20 -20 -20 -20 -20 -20 -20 -20 -21 -21 -21 -21 -22 -23 -23 -23 -24 -24 -25 -25 -25 -26 -26 -26 -27 -27 -28 -28 -28 -29 -29
-19 -19 -19 -19 -19 -19 -19 -19 -19 -20 -20 -20 -20 -20 -20 -20 -20 -21 -21 -21 -21 -21 -22 -23 -23 -24 -24 -25 -25 -25 -26 -26 -26 -27 -27 -27 -28 -28 -28 -29 -29 -30
-19 -19 -19 -19 -19 -19 -19 -19 -20 -20 -20 -20 -20 -20 -20 -21 -21 -21 -21 -21 -22 -22 -23 -23 -24 -25 -25 -25 -26 -26 -26 -26 -27 -27 -27 -28 -28 -29 -29 -29 -30 -30
-18 -18 -19 -19 -19 -19 -19 -20 -20 -20 -20 -20 -20 -21 -21 -21 -21 -21 -22 -22 -23 -23 -24 -24 -25 -25 -26 -26 -26 -27 -27 -27 -27 -28 -28 -28 -29 -29 -29 -30 -30 -30
-18 -19 -19 -19 -19 -19 -20 -20 -20 -20 -20 -21 -21 -21 -21 -21 -21 -22 -22 -23 -23 -24 -24 -25 -26 -26 -26 -27 -27 -27 -28 -28 -28 -28 -28 -29 -29 -30 -30 -30 -31 -31
-19 -19 -19 -19 -19 -20 -20 -20 -20 -21 -21 -21 -21 -21 -21 -22 -22 -23 -23 -24 -24 -25 -25 -26 -26 -27 -27 -27 -28 -28 -28 -28 -28 -29 -29 -30 -30 -30 -30 -31 -31 -31
Height
5788 5787 5787 5786 5785 5784 5783 5782 5780 5779 5777 5775 5773 5771 5769 5766 5764 5762 5760 5758 5755 5753 5751 5748 5745 5743 5740 5737 5734 5731 5727 5724 5721 5717 5714 5711 5707 5703 5698 5694 5689 5685
5783 5782 5781 5780 5779 5778 5777 5776 5774 5773 5771 5768 5766 5764 5762 5760 5758 5756 5753 5751 5748 5745 5743 5740 5737 5735 5732 5729 5726 5722 5719 5716 5712 5709 5705 5702 5698 5693 5689 5684 5680 5675
5778 5777 5776 5775 5774 5773 5772 5770 5768 5766 5764 5762 5760 5757 5755 5753 5751 5749 5746 5743 5740 5738 5735 5732 5730 5727 5724 5721 5718 5714 5711 5707 5703 5700 5697 5693 5689 5684 5680 5675 5670 5665
5772 5771 5770 5769 5768 5767 5765 5763 5761 5759 5757 5755 5752 5750 5748 5746 5744 5741 5738 5735 5732 5730 5727 5725 5722 5719 5716 5713 5709 5706 5702 5699 5695 5691 5688 5684 5680 5675 5671 5666 5660 5655
5766 5765 5764 5763 5762 5760 5758 5756 5754 5752 5750 5748 5745 5743 5741 5739 5736 5733 5730 5727 5724 5722 5719 5717 5714 5711 5708 5704 5701 5697 5694 5690 5686 5682 5679 5675 5671 5667 5662 5657 5652 5646
5760 5759 5758 5756 5755 5753 5751 5749 5747 5745 5743 5740 5738 5736 5734 5731 5728 5725 5722 5719 5717 5714 5712 5709 5706 5703 5699 5696 5692 5689 5685 5681 5678 5674 5670 5666 5661 5657 5652 5647 5642 5637
5753 5752 5751 5750 5748 5746 5744 5742 5740 5738 5735 5733 5731 5729 5726 5724 5721 5718 5715 5712 5709 5707 5704 5701 5698 5694 5691 5687 5683 5680 5677 5673 5670 5666 5661 5657 5652 5647 5642 5638 5633 5628
5747 5746 5744 5743 5741 5739 5737 5735 5733 5731 5728 5726 5724 5722 5719 5716 5713 5710 5707 5705 5702 5699 5696 5692 5689 5686 5682 5678 5675 5672 5669 5665 5660 5656 5652 5647 5642 5637 5633 5628 5624 5619
5740 5739 5737 5736 5734 5732 5730 5728 5726 5723 5721 5719 5717 5714 5712 5709 5706 5703 5700 5697 5694 5691 5688 5684 5680 5677 5673 5669 5666 5663 5660 5655 5650 5646 5642 5637 5632 5628 5623 5619 5614 5610
5734 5732 5731 5729 5727 5725 5723 5721 5719 5717 5714 5712 5710 5707 5704 5701 5698 5695 5692 5689 5686 5683 5679 5676 5672 5668 5665 5661 5658 5654 5650 5646 5641 5637 5632 5627 5623 5618 5613 5609 5605 5601
5728 5726 5725 5723 5721 5719 5716 5714 5712 5710 5707 5705 5702 5699 5696 5693 5690 5688 5685 5681 5678 5674 5671 5667 5664 5660 5656 5653 5649 5645 5641 5637 5632 5627 5622 5618 5613 5609 5604 5599 5595 5591
5721 5720 5718 5716 5714 5711 5709 5707 5705 5702 5700 5697 5694 5691 5688 5686 5683 5680 5676 5673 5669 5666 5663 5659 5656 5652 5648 5644 5640 5636 5632 5627 5622 5617 5612 5608 5604 5599 5595 5590 5586 5582
5715 5713 5711 5709 5706 5704 5702 5699 5697 5694 5691 5689 5686 5684 5681 5678 5675 5671 5668 5664 5661 5658 5655 5651 5647 5643 5639 5635 5631 5627 5622 5617 5612 5607 5603 5599 5595 5590 5586 5581 5577 5573
5708 5706 5704 5701 5698 5696 5694 5691 5689 5686 5683 5681 5678 5676 5673 5669 5666 5662 5659 5656 5653 5650 5646 5643 5639 5634 5630 5626 5622 5618 5613 5608 5603 5598 5594 5589 5585 5581 5577 5573 5569 5564
5700 5698 5695 5693 5690 5688 5686 5683 5680 5677 5675 5673 5670 5668 5664 5661 5657 5654 5651 5648 5645 5642 5638 5634 5630 5625 5621 5617 5613 5609 5604 5599 5594 5589 5585 5581 5576 5572 5568 5564 5560 5556
5692 5689 5687 5685 5682 5680 5677 5674 5672 5669 5667 5665 5662 5659 5656 5652 5649 5645 5643 5640 5637 5633 5629 5625 5621 5616 5612 5608 5604 5600 5595 5591 5586 5581 5576 5572 5568 5564 5560 5556 5552 5547
5683 5681 5679 5676 5674 5671 5668 5666 5663 5661 5659 5657 5654 5651 5647 5644 5640 5637 5634 5631 5628 5625 5621 5616 5611 5607 5603 5599 5595 5591 5587 5582 5578 5573 5568 5563 5559 5555 5551 5547 5543 5538
5675 5672 5670 5668 5665 5662 5660 5658 5655 5653 5651 5649 5646 5642 5638 5635 5632 5629 5626 5623 5619 5616 5611 5607 5602 5597 5594 5590 5586 5582 5578 5575 5570 5566 5561 5556 5551 5547 5542 5538 5534 5530
5666 5664 5662 5659 5657 5654 5652 5650 5648 5646 5643 5640 5637 5633 5629 5626 5623 5620 5617 5614 5610 5606 5602 5597 5592 5588 5584 5581 5577 5574 5570 5567 5562 5558 5553 5548 5543 5539 5534 5530 5526 5522
5658 5656 5654 5651 5649 5647 5645 5642 5640 5638 5635 5632 5628 5624 5621 5618 5615 5612 5609 5605 5601 5596 5592 5588 5583 5579 5575 5572 5568 5565 5562 5559 5555 5550 5545 5540 5535 5531 5526 5522 5518 5514
5650 5648 5645 5643 5641 5639 5637 5635 5632 5629 5626 5623 5619 5616 5613 5610 5607 5604 5600 5596 5591 5587 5583 5579 5575 5570 5566 5563 5560 5556 5554 5551 5547 5542 5537 5532 5527 5522 5519 5515 5510 5507
5641 5639 5637 5636 5633 5631 5629 5627 5623 5621 5617 5614 5611 5608 5605 5601 5598 5595 5591 5586 5582 5578 5575 5571 5566 5560 5557 5554 5551 5547 5545 5542 5539 5534 5530 5525 5519 5515 5511 5507 5503 5500
5633 5631 5630 5627 5625 5623 5621 5618 5615 5611 5608 5605 5602 5600 5596 5593 5589 5585 5582 5577 5573 5569 5566 5562 5557 5552 5548 5545 5542 5539 5535 5533 5530 5526 5522 5517 5512 5507 5503 5500 5496 5492
5626 5624 5622 5619 5617 5615 5612 5609 5606 5603 5600 5597 5594 5591 5587 5584 5580 5576 5572 5569 5565 5561 5557 5553 5549 5543 5539 5536 5533 5529 5526 5523 5520 5517 5513 5509 5504 5500 5497 5493 5490 5486
5618 5616 5613 5611 5608 5606 5603 5600 5597 5594 5591 5588 5585 5581 5578 5574 5570 5567 5563 5560 5556 5552 5548 5544 5541 5535 5530 5527 5524 5520 5516 5514 5511 5508 5505 5501 5496 5492 5490 5486 5483 5478
5610 5607 5604 5601 5599 5596 5594 5591 5589 5585 5582 5579 5575 5572 5568 5564 5561 5557 5554 5550 5547 5543 5539 5536 5532 5527 5522 5517 5514 5510 5506 5503 5501 5499 5496 5492 5488 5485 5483 5479 5475 5471
Wind_Speed
42 43 43 43 43 44 45 46 48 50 52 53 54 56 57 58 59 60 61 61 62 63 65 65 65 65 66 67 67 68 69 70 71 72 74 76 78 79 81 82 83 84
44 44 45 45 45 47 49 50 52 54 56 57 57 58 60 61 62 62 62 62 64 65 66 66 66 67 67 68 69 69 69 70 72 74 76 78 80 82 83 84 84 84
46 46 47 48 49 51 53 54 56 57 59 60 60 61 62 62 62 62 63 64 66 67 67 67 67 68 69 70 70 70 70 71 73 76 78 80 82 83 84 85 84 84
47 48 50 51 53 54 56 58 59 60 61 61 62 63 63 62 63 63 64 66 68 68 68 68 68 69 70 71 71 71 71 73 76 78 80 81 83 85 85 85 84 83
49 50 52 54 55 57 58 59 60 61 61 62 63 63 63 63 64 65 66 67 69 69 69 68 69 70 71 72 72 72 72 75 78 80 81 83 85 85 85 84 83 82
51 53 54 56 57 58 59 60 61 61 62 62 63 63 64 65 65 66 67 68 69 69 69 69 70 71 72 73 73 73 74 77 79 81 83 84 85 85 85 84 82 81
53 54 55 56 57 58 60 60 61 61 62 62 63 64 65 65 65 66 68 69 69 69 69 70 71 72 73 74 74 75 76 78 81 83 84 85 86 85 84 83 82 80
54 54 55 56 57 59 59 60 60 61 62 63 64 64 64 65 66 67 68 68 69 69 70 71 72 73 74 75 76 76 78 80 83 84 84 85 85 84 83 82 81 80
54 55 56 57 58 59 59 60 61 62 63 64 64 64 64 65 66 67 68 68 69 70 71 72 73 74 75 76 77 78 80 83 84 84 84 85 84 83 82 81 80 80
55 57 58 59 59 60 61 61 62 63 64 64 64 64 64 65 67 67 68 69 70 71 72 73 74 74 75 77 79 80 82 84 85 84 84 84 83 82 81 80 80 80
58 59 60 61 61 62 62 62 63 64 64 63 63 63 65 66 67 68 69 70 72 73 73 73 74 75 76 78 80 82 83 84 84 84 83 83 82 81 80 80 81 82
61 61 61 61 62 61 62 62 63 63 63 63 63 64 65 66 68 69 71 72 73 73 73 74 74 76 78 80 82 83 84 84 83 83 82 82 81 80 80 81 82 82
60 60 60 60 60 61 62 62 62 63 63 63 64 64 66 67 69 71 72 73 73 73 74 74 76 77 79 81 82 83 83 83 82 82 81 81 81 80 81 81 82 82
57 57 58 59 60 61 62 62 62 63 63 64 64 65 67 69 71 73 73 73 73 73 74 76 77 79 81 82 82 83 83 82 81 81 81 80 80 81 81 81 82 82
56 57 59 60 61 62 62 62 63 64 64 64 65 66 69 71 73 73 73 73 73 74 75 77 78 80 81 82 82 82 81 80 80 80 80 80 80 80 81 81 81 82
58 59 60 62 62 62 62 63 64 64 64 65 67 68 70 72 73 73 73 73 74 75 77 78 79 80 81 82 82 81 80 79 79 79 79 79 80 80 81 81 81 81
60 61 63 63 63 63 63 64 64 65 66 67 69 70 71 72 73 73 73 74 75 77 78 79 80 80 81 81 81 80 79 79 79 78 79 79 80 80 81 81 80 78
62 63 63 62 62 62 64 65 67 68 69 69 70 71 72 73 73 73 74 75 76 77 78 79 80 81 81 81 80 79 79 79 78 78 78 79 79 80 81 80 78 75
62 62 61 61 62 64 66 68 70 70 70 70 71 71 72 73 73 74 75 76 77 78 79 80 80 81 80 80 79 79 79 78 78 78 78 78 80 80 80 79 76 72
62 62 61 63 64 66 69 71 71 71 71 71 71 71 72 73 74 75 76 76 77 78 79 80 80 80 80 80 79 79 78 78 77 77 78 79 80 80 79 76 73 70
63 63 64 65 67 70 71 72 71 71 71 71 71 72 73 74 75 75 76 76 77 78 79 79 79 79 79 79 79 78 78 77 77 77 78 79 79 79 77 74 71 69
65 66 67 68 70 72 72 71 71 71 71 71 72 72 73 74 75 75 76 77 78 79 79 78 78 79 79 78 78 78 77 77 77 77 78 78 78 76 74 71 69 68
68 69 69 71 72 73 72 72 72 72 71 72 72 73 74 74 75 75 76 77 78 78 78 78 78 78 78 78 77 77 77 77 77 78 78 77 75 73 71 69 68 67
71 71 71 73 74 74 74 73 72 72 72 72 73 73 74 74 75 76 77 77 77 77 77 77 77 77 77 77 77 77 78 78 77 78 77 75 72 70 69 68 67 67
72 72 73 75 76 75 74 73 72 72 72 72 73 74 74 75 76 76 76 76 76 76 76 76 76 76 77 77 77 78 78 78 77 77 75 72 69 68 67 67 66 67
73 73 74 75 74 73 72 71 71 72 72 73 73 74 75 75 76 76 76 76 76 75 75 75 75 75 76 77 77 78 78 77 77 75 72 69 68 67 66 66 66 66
Wind_Direction
264 266 268 269 271 273 276 280 283 286 289 291 293 295 296 297 297 298 299 300 301 302 302 303 303 303 302 302 303 304 304 305 306 307 308 310 311 312 313 313 313 312
266 267 269 270 272 275 279 283 286 288 290 292 293 294 295 296 296 297 298 299 300 301 302 302 302 302 301 301 302 303 304 305 306 308 310 311 312 312 313 313 312 311
268 269 270 272 275 278 281 284 286 288 290 291 292 293 294 294 295 296 297 299 300 300 301 301 301 301 300 301 302 303 304 306 307 309 311 312 312 312 312 312 311 309
270 271 272 274 277 279 282 284 286 288 289 290 291 292 293 293 294 296 297 298 299 300 300 300 300 300 300 301 303 304 305 307 309 310 311 311 311 312 311 310 309 308
271 273 274 276 278 281 283 284 286 287 287 289 290 291 292 294 295 297 297 298 298 299 299 300 299 300 301 302 303 305 307 309 309 310 311 311 311 310 310 309 308 307
272 274 276 277 279 281 282 283 284 285 286 288 289 291 293 295 296 297 297 297 298 298 299 299 299 300 301 303 304 306 308 309 309 309 310 310 310 309 308 308 307 306
274 275 276 278 279 279 280 282 283 285 286 288 290 292 294 295 296 296 296 297 297 298 299 299 300 301 302 303 305 306 308 308 308 309 309 309 308 308 307 307 306 306
274 275 276 277 278 279 280 282 284 285 287 289 291 293 294 294 295 295 296 297 297 298 299 299 301 302 303 304 305 307 308 308 308 308 308 308 307 307 306 306 306 306
275 276 276 277 278 280 282 283 285 286 288 290 291 292 293 293 294 295 296 297 298 298 299 300 301 302 303 304 305 307 308 308 308 308 307 306 306 306 306 306 306 305
275 276 277 279 281 282 283 284 285 287 288 289 291 292 293 294 295 296 296 297 298 298 300 301 302 302 304 305 306 307 307 307 307 306 306 306 306 306 306 306 305 305
277 278 280 281 283 283 284 284 285 286 287 289 291 293 294 294 295 296 296 297 298 299 300 301 302 303 304 305 306 306 306 306 306 305 305 305 305 306 306 305 305 306
278 280 281 282 282 283 283 284 285 287 289 291 293 294 294 295 296 296 297 298 299 299 300 301 302 303 304 305 305 306 305 305 305 305 305 305 306 306 306 305 306 306
279 280 281 281 282 283 284 285 287 289 292 293 294 294 295 295 296 297 298 298 298 299 300 301 302 303 303 304 305 305 305 304 304 304 305 305 305 305 305 305 306 307
280 281 282 283 284 285 286 288 290 292 293 294 294 294 295 295 296 297 297 297 298 299 300 301 301 302 303 304 304 304 304 304 304 304 305 305 305 305 305 306 306 307
284 284 285 285 285 287 288 290 292 293 294 294 294 294 295 296 296 296 296 297 298 299 300 301 301 302 303 303 303 303 304 304 304 304 304 304 304 305 305 306 306 307
285 285 285 285 287 288 291 292 293 294 294 293 293 294 295 295 294 295 296 297 298 299 300 301 301 302 302 302 303 303 303 303 303 304 304 304 304 304 305 305 306 306
285 285 285 287 289 290 292 293 292 292 292 292 293 293 293 293 294 295 296 296 297 299 300 301 301 301 302 302 302 302 302 303 303 303 303 303 303 304 305 305 305 305
286 286 287 288 289 289 290 290 290 290 291 291 292 292 293 293 294 294 295 296 298 299 300 300 300 301 301 301 301 301 302 302 302 302 302 303 303 304 304 305 304 302
287 288 287 287 287 286 286 287 288 289 290 291 292 292 292 292 293 294 296 297 298 299 299 300 300 300 300 300 300 301 301 301 301 301 302 302 302 303 303 304 302 300
286 287 286 285 284 284 284 285 287 289 290 291 291 291 291 292 293 295 297 297 298 298 299 299 299 299 299 299 299 300 300 300 300 301 301 301 302 302 303 302 300 298
285 284 283 282 282 282 284 286 288 290 290 290 289 289 290 292 294 296 296 296 297 297 298 298 298 297 298 298 298 298 299 299 300 300 300 301 301 301 301 299 298 297
283 282 281 280 281 282 285 287 289 290 289 288 288 289 291 293 294 295 295 295 296 297 297 297 296 296 296 297 297 297 298 298 299 299 300 300 300 300 299 297 296 297
281 280 279 279 281 284 287 288 288 287 287 287 289 291 292 293 294 294 294 295 295 296 296 295 295 295 295 296 296 296 297 297 298 299 299 299 299 297 296 295 296 297
279 277 277 279 283 286 287 286 285 285 286 288 290 291 292 292 293 293 294 294 294 294 294 294 294 294 294 295 295 295 296 297 297 298 298 298 296 295 294 295 295 296
276 275 277 280 283 284 283 283 284 285 288 289 290 291 291 291 292 292 292 292 292 293 293 293 293 294 294 294 294 295 295 296 296 297 297 296 294 293 294 294 295 297
274 275 277 279 280 280 281 282 285 287 289 289 290 290 290 291 291 291 291 291 292 292 292 293 293 293 293 293 294 294 294 295 296 296 295 294 293 293 294 295 296 298